EW4676 Weather Reports


Display with metric or nautical units.
time (UTC)temp
F
wind
direction
speed
MPH
gust
MPH
rain 1hr
in
rain 24hr
in
rain mn
in
humidity
%
barometer
mb
20260903012617 92 73 5.0 13.0 0.00 0.00 0.00 48 1011.6
20260903012103 92 166 4.0 12.0 0.00 0.00 0.00 48 1011.5
20260903011556 92 109 5.0 15.0 0.00 0.00 0.00 48 1011.5
20260903011051 92 172 5.0 15.0 0.00 0.00 0.00 47 1011.5
20260903010549 93 127 5.0 13.0 0.00 0.00 0.00 47 1011.3
20260903010544 93 105 5.0 10.0 0.00 0.00 0.00 47 1011.3
20260903005537 93 68 5.0 10.0 0.00 0.00 0.00 47 1011.3
20260903005035 93 89 4.0 9.0 0.00 0.00 0.00 46 1011.3
20260903004530 94 111 4.0 10.0 0.00 0.00 0.00 46 1011.2
20260903004023 94 101 5.0 12.0 0.00 0.00 0.00 45 1011.2
20260903003514 94 93 6.0 13.0 0.00 0.00 0.00 44 1011.2
20260903003005 94 81 6.0 21.0 0.00 0.00 0.00 43 1011.3
20260903002454 94 92 7.0 21.0 0.00 0.00 0.00 42 1011.2
20260903001942 95 97 8.0 18.0 0.00 0.00 0.00 42 1011.2
20260903001433 95 78 8.0 23.0 0.00 0.00 0.00 42 1011.1
20260903000925 96 77 8.0 23.0 0.00 0.00 0.00 42 1011.1
20260903000417 97 57 7.0 23.0 0.00 0.00 0.00 42 1011.1
20260902235905 97 74 6.0 23.0 0.00 0.00 0.00 41 1011.1
20260902235355 97 89 4.0 11.0 0.00 0.00 0.00 38 1011.0
20260902235124 97 92 3.0 9.0 0.00 0.00 0.00 38 1010.8
20260902235044 98 74 4.0 9.0 0.00 0.00 0.00 37 1010.8
20260902235005 98 85 5.0 13.0 0.00 0.00 0.00 37 1010.8
20260902233306 98 126 5.0 16.0 0.00 0.00 0.00 37 1010.8
20260902232758 98 87 5.0 16.0 0.00 0.00 0.00 38 1010.8
20260902232250 98 86 4.0 12.0 0.00 0.00 0.00 38 1010.7
20260902231748 98 72 3.0 11.0 0.00 0.00 0.00 37 1010.7
20260902231240 98 5 4.0 10.0 0.00 0.00 0.00 37 1010.7
20260902230739 98 59 4.0 8.0 0.00 0.00 0.00 37 1010.7
20260902230230 98 59 3.0 7.0 0.00 0.00 0.00 36 1010.7
20260902225719 98 115 3.0 10.0 0.00 0.00 0.00 36 1010.7
20260902225202 98 83 4.0 10.0 0.00 0.00 0.00 36 1010.8
20260902224651 99 62 4.0 9.0 0.00 0.00 0.00 35 1010.8
20260902224142 99 37 4.0 9.0 0.00 0.00 0.00 35 1010.8
20260902223631 98 8 4.0 9.0 0.00 0.00 0.00 36 1010.8
20260902223122 99 37 4.0 11.0 0.00 0.00 0.00 35 1011.0
20260902222611 99 69 4.0 12.0 0.00 0.00 0.00 37 1011.0
20260902222102 98 74 5.0 12.0 0.00 0.00 0.00 38 1011.0
20260902221549 98 332 4.0 8.0 0.00 0.00 0.00 37 1011.0
20260902221040 99 35 5.0 10.0 0.00 0.00 0.00 36 1011.0
20260902221031 99 60 5.0 12.0 0.00 0.00 0.00 36 1011.1
20260902220024 99 80 4.0 11.0 0.00 0.00 0.00 35 1011.2
20260902215510 100 87 3.0 12.0 0.00 0.00 0.00 36 1011.2
20260902215000 100 93 4.0 12.0 0.00 0.00 0.00 37 1011.2
20260902214449 99 68 5.0 13.0 0.00 0.00 0.00 37 1011.2
20260902213940 100 84 5.0 13.0 0.00 0.00 0.00 36 1011.2
20260902213429 100 80 5.0 9.0 0.00 0.00 0.00 36 1011.3
20260902213421 99 91 5.0 12.0 0.00 0.00 0.00 36 1011.4
20260902212409 100 28 6.0 14.0 0.00 0.00 0.00 36 1011.5
20260902211859 100 38 5.0 12.0 0.00 0.00 0.00 36 1011.6
20260902211349 100 17 5.0 13.0 0.00 0.00 0.00 36 1011.6
20260902210840 101 97 5.0 13.0 0.00 0.00 0.00 36 1011.6
20260902210329 100 49 6.0 15.0 0.00 0.00 0.00 36 1011.7
20260902205820 100 13 6.0 15.0 0.00 0.00 0.00 36 1011.8
20260902205309 100 50 6.0 13.0 0.00 0.00 0.00 36 1011.8
20260902204800 101 99 5.0 13.0 0.00 0.00 0.00 35 1011.8
20260902204249 101 41 5.0 13.0 0.00 0.00 0.00 35 1011.8
20260902203740 101 353 5.0 12.0 0.00 0.00 0.00 35 1011.9
20260902203237 101 351 4.0 12.0 0.00 0.00 0.00 34 1012.0
20260902202728 99 74 4.0 13.0 0.00 0.00 0.00 36 1012.1
20260902202612 99 9 6.0 11.0 0.00 0.00 0.00 37 1012.3
20260902202216 100 89 5.0 13.0 0.00 0.00 0.00 35 1012.2
20260902201100 100 51 6.0 14.0 0.00 0.00 0.00 36 1012.4
20260902200549 100 9 5.0 13.0 0.00 0.00 0.00 36 1012.4
20260902200038 100 68 3.0 11.0 0.00 0.00 0.00 37 1012.5
20260902195527 100 52 5.0 13.0 0.00 0.00 0.00 37 1012.6
20260902195017 100 24 5.0 13.0 0.00 0.00 0.00 38 1012.6
20260902195008 100 58 4.0 11.0 0.00 0.00 0.00 39 1012.8
20260902193957 99 3 7.0 14.0 0.00 0.00 0.00 39 1012.9
20260902193450 99 33 6.0 14.0 0.00 0.00 0.00 39 1012.9
20260902192949 100 73 5.0 16.0 0.00 0.00 0.00 38 1013.0
20260902192439 100 47 5.0 16.0 0.00 0.00 0.00 37 1013.1
20260902191929 99 18 5.0 11.0 0.00 0.00 0.00 38 1013.3
20260902191419 97 24 5.0 11.0 0.00 0.00 0.00 42 1013.4
20260902190909 98 70 3.0 11.0 0.00 0.00 0.00 40 1013.4
20260902190359 98 38 2.0 14.0 0.00 0.00 0.00 40 1013.5
20260902185849 96 131 3.0 14.0 0.00 0.00 0.00 40 1013.5
20260902185339 97 28 5.0 14.0 0.00 0.00 0.00 40 1013.6
20260902184829 98 15 3.0 14.0 0.00 0.00 0.00 40 1013.7
20260902184319 97 16 2.0 7.0 0.00 0.00 0.00 40 1013.7
20260902183809 98 57 4.0 11.0 0.00 0.00 0.00 40 1013.8
20260902183259 98 36 4.0 11.0 0.00 0.00 0.00 41 1013.9
20260902182750 97 35 4.0 9.0 0.00 0.00 0.00 41 1013.9
20260902182239 97 85 3.0 9.0 0.00 0.00 0.00 41 1014.1
20260902182230 95 111 2.0 11.0 0.00 0.00 0.00 43 1014.2
20260902181211 96 47 3.0 11.0 0.00 0.00 0.00 41 1014.3
20260902180701 96 53 5.0 11.0 0.00 0.00 0.00 42 1014.4
20260902180150 97 53 6.0 12.0 0.00 0.00 0.00 40 1014.6
20260902175633 96 68 3.0 12.0 0.00 0.00 0.00 40 1014.7
20260902175123 96 132 2.0 7.0 0.00 0.00 0.00 44 1014.7
20260902174615 96 105 3.0 8.0 0.00 0.00 0.00 44 1014.8
20260902174609 95 71 3.0 8.0 0.00 0.00 0.00 45 1014.9
20260902174055 95 61 2.0 7.0 0.00 0.00 0.00 45 1015.0
20260902173659 95 31 2.0 8.0 0.00 0.00 0.00 44 1015.0
20260902173048 94 55 4.0 10.0 0.00 0.00 0.00 45 1015.1
20260902172044 93 135 3.0 10.0 0.00 0.00 0.00 45 1015.2
20260902171542 93 53 3.0 7.0 0.00 0.00 0.00 47 1015.3
20260902171043 95 49 3.0 9.0 0.00 0.00 0.00 45 1015.4
20260902171039 93 66 3.0 9.0 0.00 0.00 0.00 45 1015.4
20260902170035 94 68 3.0 8.0 0.00 0.00 0.00 46 1015.5
20260902165537 94 105 2.0 8.0 0.00 0.00 0.00 45 1015.5
20260902165034 94 76 3.0 8.0 0.00 0.00 0.00 47 1015.5
20260902164527 93 9 3.0 9.0 0.00 0.00 0.00 48 1015.6
20260902164020 94 48 2.0 9.0 0.00 0.00 0.00 47 1015.6
20260902163520 92 224 2.0 5.0 0.00 0.00 0.00 48 1015.6
20260902163017 92 97 2.0 5.0 0.00 0.00 0.00 47 1015.7
20260902162507 93 82 3.0 8.0 0.00 0.00 0.00 47 1015.8
20260902162003 93 26 3.0 8.0 0.00 0.00 0.00 48 1015.8
20260902161458 93 68 4.0 9.0 0.00 0.00 0.00 47 1015.8
20260902160951 91 92 4.0 9.0 0.00 0.00 0.00 49 1015.8
20260902160443 92 43 2.0 7.0 0.00 0.00 0.00 48 1015.8
20260902160436 90 76 2.0 6.0 0.00 0.00 0.00 50 1015.8
20260902155429 90 101 3.0 6.0 0.00 0.00 0.00 51 1015.9
20260902154930 89 179 3.0 7.0 0.00 0.00 0.00 51 1015.9
20260902154925 90 176 2.0 7.0 0.00 0.00 0.00 52 1015.8
20260902153920 90 83 1.0 5.0 0.00 0.00 0.00 53 1015.8
20260902153910 89 50 2.0 6.0 0.00 0.00 0.00 53 1015.8
20260902152904 89 37 1.0 6.0 0.00 0.00 0.00 54 1015.8
20260902152355 88 62 0.0 0.0 0.00 0.00 0.00 54 1015.9
20260902151848 87 67 1.0 4.0 0.00 0.00 0.00 56 1015.9
20260902151339 87 71 2.0 5.0 0.00 0.00 0.00 57 1015.9
20260902150831 88 74 2.0 5.0 0.00 0.00 0.00 56 1015.8
20260902150330 87 78 2.0 5.0 0.00 0.00 0.00 58 1015.8
20260902145822 86 90 2.0 5.0 0.00 0.00 0.00 59 1015.8
20260902145314 86 74 2.0 6.0 0.00 0.00 0.00 58 1015.8
20260902144804 86 118 2.0 6.0 0.00 0.00 0.00 60 1015.8
20260902144255 86 97 2.0 6.0 0.00 0.00 0.00 59 1015.8
20260902143744 86 47 2.0 8.0 0.00 0.00 0.00 59 1015.8
20260902143234 84 137 3.0 8.0 0.00 0.00 0.00 61 1015.9
20260902142724 84 143 3.0 6.0 0.00 0.00 0.00 62 1015.8
20260902142214 84 132 2.0 6.0 0.00 0.00 0.00 62 1015.8
20260902141703 84 123 2.0 5.0 0.00 0.00 0.00 63 1015.8
20260902141158 84 124 2.0 6.0 0.00 0.00 0.00 64 1015.7
20260902140656 83 109 1.0 6.0 0.00 0.00 0.00 64 1015.8
20260902140146 83 92 1.0 6.0 0.00 0.00 0.00 64 1015.8
20260902135637 82 97 2.0 6.0 0.00 0.00 0.00 65 1015.8
20260902135126 82 164 2.0 7.0 0.00 0.00 0.00 65 1015.8
20260902134617 82 111 2.0 7.0 0.00 0.00 0.00 66 1015.8
20260902134106 81 90 2.0 6.0 0.00 0.00 0.00 67 1015.8
20260902134056 80 146 3.0 9.0 0.00 0.00 0.00 69 1015.8
20260902133733 80 140 3.0 9.0 0.00 0.00 0.00 69 1015.9
20260902133441 79 85 2.0 6.0 0.00 0.00 0.00 70 1015.7
20260902133410 80 100 4.0 9.0 0.00 0.00 0.00 69 1015.8
20260902133154 80 143 2.0 6.0 0.00 0.00 0.00 70 1015.8
20260902131517 79 85 2.0 6.0 0.00 0.00 0.00 70 1015.7
20260902131507 79 92 2.0 6.0 0.00 0.00 0.00 70 1015.6
20260902130958 79 122 1.0 4.0 0.00 0.00 0.00 71 1015.5
20260902125946 79 95 1.0 4.0 0.00 0.00 0.00 71 1015.4
20260902125436 79 91 1.0 4.0 0.00 0.00 0.00 71 1015.4
20260902125428 79 93 0.0 4.0 0.00 0.00 0.00 71 1015.3
20260902124416 79 99 0.0 2.0 0.00 0.00 0.00 71 1015.3
20260902124407 79 96 1.0 5.0 0.00 0.00 0.00 71 1015.2
20260902123348 79 95 2.0 5.0 0.00 0.00 0.00 71 1015.2
20260902122848 79 102 2.0 4.0 0.00 0.00 0.00 71 1015.2
20260902122338 79 102 2.0 4.0 0.00 0.00 0.00 70 1015.2
20260902121828 79 95 1.0 3.0 0.00 0.00 0.00 70 1015.0
20260902121319 79 95 1.0 3.0 0.00 0.00 0.00 70 1015.0
20260902121309 79 94 1.0 4.0 0.00 0.00 0.00 70 1015.0
20260902120920 79 91 1.0 5.0 0.00 0.00 0.00 70 1015.0
20260902120750 79 87 1.0 5.0 0.00 0.00 0.00 70 1015.0
20260902115739 79 107 0.0 0.0 0.00 0.00 0.00 70 1015.1
20260902114728 79 109 0.0 0.0 0.00 0.00 0.00 69 1015.1
20260902114218 79 108 0.0 0.0 0.00 0.00 0.00 69 1015.1
20260902113708 79 107 0.0 0.0 0.00 0.00 0.00 69 1015.1
20260902113158 79 107 0.0 0.0 0.00 0.00 0.00 69 1015.0
20260902112648 79 107 0.0 0.0 0.00 0.00 0.00 69 1015.0
20260902112637 79 107 0.0 4.0 0.00 0.00 0.00 69 1014.9
20260902111627 80 107 1.0 4.0 0.00 0.00 0.00 68 1015.0
20260902111122 80 109 1.0 4.0 0.00 0.00 0.00 68 1015.0
20260902110612 80 106 1.0 4.0 0.00 0.00 0.00 68 1015.0
20260902105552 80 106 0.0 2.0 0.00 0.00 0.00 68 1015.0
20260902105042 80 105 0.0 2.0 0.00 0.00 0.00 67 1015.1
20260902104533 80 105 0.0 3.0 0.00 0.00 0.00 67 1015.1
20260902104023 80 104 1.0 3.0 0.00 0.00 0.00 67 1015.1
20260902103512 80 104 1.0 4.0 0.00 0.00 0.00 67 1015.1
20260902103002 80 106 1.0 4.0 0.00 0.00 0.00 67 1015.1
20260902102452 80 116 0.0 3.0 0.00 0.00 0.00 67 1015.0
20260902101943 80 122 1.0 3.0 0.00 0.00 0.00 66 1014.9
20260902101430 81 126 1.0 3.0 0.00 0.00 0.00 66 1014.9
20260902100921 81 142 0.0 3.0 0.00 0.00 0.00 66 1014.9
20260902100911 81 142 1.0 3.0 0.00 0.00 0.00 66 1014.9
20260902095901 81 142 1.0 3.0 0.00 0.00 0.00 65 1015.0
20260902095350 81 151 1.0 4.0 0.00 0.00 0.00 65 1015.0
20260902094838 81 153 0.0 4.0 0.00 0.00 0.00 65 1014.9
20260902094328 81 221 0.0 1.0 0.00 0.00 0.00 65 1014.9
20260902093818 82 221 0.0 0.0 0.00 0.00 0.00 64 1014.9
20260902093309 82 220 0.0 0.0 0.00 0.00 0.00 64 1014.9
20260902092759 82 220 0.0 0.0 0.00 0.00 0.00 64 1014.9
20260902092248 82 220 0.0 0.0 0.00 0.00 0.00 63 1014.9
20260902092238 82 220 0.0 0.0 0.00 0.00 0.00 63 1014.9
20260902091234 82 218 0.0 2.0 0.00 0.00 0.00 62 1015.0
20260902091228 82 218 0.0 2.0 0.00 0.00 0.00 62 1014.9
20260902090218 82 218 0.0 6.0 0.00 0.00 0.00 62 1015.0
20260902085708 82 218 1.0 6.0 0.00 0.00 0.00 62 1014.9
20260902085652 83 176 2.0 6.0 0.00 0.00 0.00 62 1014.9
20260902084638 83 143 2.0 7.0 0.00 0.00 0.00 62 1014.9
20260902084630 83 188 3.0 7.0 0.00 0.00 0.00 61 1014.9
20260902083616 83 150 3.0 8.0 0.00 0.00 0.00 61 1014.8
20260902083109 83 188 3.0 7.0 0.00 0.00 0.00 61 1014.8
20260902082600 83 176 3.0 7.0 0.00 0.00 0.00 61 1014.9
20260902082053 83 182 3.0 10.0 0.00 0.00 0.00 61 1014.9
20260902081543 83 157 4.0 10.0 0.00 0.00 0.00 61 1014.9
20260902081040 83 152 5.0 10.0 0.00 0.00 0.00 60 1014.9
20260902080534 83 202 4.0 10.0 0.00 0.00 0.00 60 1015.0
20260902080021 84 149 4.0 10.0 0.00 0.00 0.00 60 1015.0
20260902075516 84 157 4.0 8.0 0.00 0.00 0.00 60 1014.9
20260902075017 84 157 4.0 11.0 0.00 0.00 0.00 60 1015.0
20260902074516 84 161 4.0 11.0 0.00 0.00 0.00 60 1015.0
20260902074013 84 164 5.0 10.0 0.00 0.00 0.00 59 1014.9
20260902073514 84 183 5.0 11.0 0.00 0.00 0.00 59 1015.0
20260902073017 84 146 5.0 11.0 0.00 0.00 0.00 59 1015.1
20260902073013 84 152 5.0 11.0 0.00 0.00 0.00 59 1015.0
20260902072013 84 153 5.0 12.0 0.00 0.00 0.00 59 1015.1
20260902071515 85 161 5.0 15.0 0.00 0.00 0.00 58 1015.1
20260902071511 84 139 5.0 12.0 0.00 0.00 0.00 59 1015.1
20260902071008 85 167 6.0 15.0 0.00 0.00 0.00 58 1015.0
20260902070007 85 153 6.0 14.0 0.00 0.00 0.00 58 1015.0
20260902065506 85 146 5.0 13.0 0.00 0.00 0.00 58 1015.0
20260902065004 85 170 5.0 11.0 0.00 0.00 0.00 58 1015.0
20260902064505 85 157 6.0 13.0 0.00 0.00 0.00 58 1015.0
20260902064000 85 134 6.0 13.0 0.00 0.00 0.00 58 1015.0
20260902063446 85 181 6.0 12.0 0.00 0.00 0.00 58 1014.9
20260902063440 85 153 6.0 12.0 0.00 0.00 0.00 58 1014.9
20260902062430 85 143 6.0 14.0 0.00 0.00 0.00 58 1014.9
20260902061926 85 159 5.0 14.0 0.00 0.00 0.00 58 1014.8
20260902061919 85 169 5.0 13.0 0.00 0.00 0.00 58 1014.8
20260902060912 85 157 6.0 13.0 0.00 0.00 0.00 58 1014.8
20260902060906 85 162 7.0 16.0 0.00 0.00 0.00 57 1014.7
20260902060511 85 213 7.0 16.0 0.00 0.00 0.00 58 1014.8
20260902055357 85 138 6.0 15.0 0.00 0.00 0.00 57 1014.7
20260902054850 86 148 6.0 15.0 0.00 0.00 0.00 57 1014.7
20260902054339 86 168 5.0 15.0 0.00 0.00 0.00 57 1014.6
20260902053829 86 128 6.0 15.0 0.00 0.00 0.00 57 1014.6
20260902053317 86 130 7.0 15.0 0.00 0.00 0.00 56 1014.6
20260902052808 86 145 7.0 15.0 0.00 0.00 0.00 56 1014.6
20260902052259 86 139 7.0 16.0 0.00 0.00 0.00 56 1014.6
20260902051750 87 138 7.0 16.0 0.00 0.00 0.00 56 1014.4
20260902051732 87 127 7.0 17.0 0.00 0.00 0.00 55 1014.4
20260902051337 87 135 7.0 17.0 0.00 0.00 0.00 55 1014.4
20260902050720 87 144 7.0 15.0 0.00 0.00 0.00 54 1014.5
20260902045713 87 139 6.0 15.0 0.00 0.00 0.00 54 1014.4
20260902045202 87 140 5.0 15.0 0.00 0.00 0.00 54 1014.5
20260902044652 88 151 5.0 15.0 0.00 0.00 0.00 54 1014.6
20260902044142 88 153 7.0 17.0 0.00 0.00 0.00 53 1014.5
20260902043643 88 139 8.0 17.0 0.00 0.00 0.00 53 1014.6
20260902043634 88 132 9.0 18.0 0.00 0.00 0.00 52 1014.4
20260902042623 89 96 9.0 18.0 0.00 0.00 0.00 52 1014.4
20260902042112 89 111 8.0 17.0 0.00 0.00 0.00 51 1014.3
20260902041603 89 132 8.0 18.0 0.00 0.00 0.00 50 1014.2
20260902041553 89 141 3.0 18.0 0.00 0.00 0.00 50 1014.2
20260902040543 89 143 1.0 5.0 0.00 0.00 0.00 49 1014.2
20260902040032 89 159 2.0 5.0 0.00 0.00 0.00 49 1014.1
20260902035521 90 149 1.0 5.0 0.00 0.00 0.00 49 1014.0
20260902035010 90 98 1.0 3.0 0.00 0.00 0.00 49 1014.1
20260902034501 90 128 1.0 5.0 0.00 0.00 0.00 49 1014.1
20260902034451 90 132 1.0 5.0 0.00 0.00 0.00 49 1014.1
20260902033942 90 132 1.0 4.0 0.00 0.00 0.00 48 1014.1
20260902032931 90 131 1.0 4.0 0.00 0.00 0.00 48 1014.1
20260902032421 90 139 1.0 4.0 0.00 0.00 0.00 48 1014.1
20260902031910 90 128 1.0 5.0 0.00 0.00 0.00 48 1014.0
20260902031401 90 121 1.0 5.0 0.00 0.00 0.00 48 1014.1
20260902030851 90 117 2.0 5.0 0.00 0.00 0.00 48 1014.0
20260902030341 91 133 1.0 5.0 0.00 0.00 0.00 47 1013.9
20260902025830 91 133 1.0 5.0 0.00 0.00 0.00 47 1013.8
20260902025322 91 93 1.0 4.0 0.00 0.00 0.00 47 1013.7
20260902024810 91 114 1.0 4.0 0.00 0.00 0.00 47 1013.7
20260902024301 91 136 2.0 4.0 0.00 0.00 0.00 47 1013.6
20260902023750 91 137 2.0 5.0 0.00 0.00 0.00 47 1013.5
20260902023742 91 141 1.0 5.0 0.00 0.00 0.00 46 1013.4
20260902023231 91 113 0.0 3.0 0.00 0.00 0.00 46 1013.3
20260902022223 92 112 0.0 3.0 0.00 0.00 0.00 46 1013.3
20260902022147 92 112 1.0 3.0 0.00 0.00 0.00 45 1013.2
20260902021145 92 112 1.0 3.0 0.00 0.00 0.00 45 1013.2
20260902020646 92 112 1.0 3.0 0.00 0.00 0.00 45 1013.1
20260902020136 92 110 1.0 3.0 0.00 0.00 0.00 45 1013.1
20260902020126 92 113 1.0 3.0 0.00 0.00 0.00 44 1013.0
20260902015108 92 143 1.0 4.0 0.00 0.00 0.00 44 1012.9
20260902015051 93 107 2.0 5.0 0.00 0.00 0.00 44 1013.0
20260902014050 93 85 2.0 5.0 0.00 0.00 0.00 43 1012.9
20260902013540 93 124 2.0 7.0 0.00 0.00 0.00 43 1012.8
20260902013527 93 127 2.0 7.0 0.00 0.00 0.00 43 1012.7